Weather in Stornoway

United Kingdom     58°12′56″N   6°22′51″W
temp.,
°C
wind,
m/s
gust,
m/s
humid.,
%
clouds,
%
prec.,
mm/h
press.,
hPa
HPBL,
m
21 april, wed
wed2101:00+4n34665 0.0 102585
04:00+3nne22695 0.0 102534
07:00+3ne227175 0.0 102656
10:00+6ene23557 0.0 1026865
13:00+8e21487 0.0 1026988
16:00+9ene22506 0.0 1026898
19:00+7ene2256100 0.0 1026468
22:00+5e2266100 0.0 102781
22 april, thu
thu2201:00+4se1169100 0.0 102737
04:00+4s1172100 0.0 102731
07:00+4s1271100 0.0 102738
10:00+8s235794 0.0 1027378
13:00+12sw245481 0.0 10271236
16:00+13w445617 0.0 10281113
19:00+12w33605 0.0 1028661
22:00+8sw017550 0.0 102911
23 april, fri
fri2301:00+7w11785 0.0 102910
04:00+6sw118077 0.0 102910
07:00+7ssw117999 0.0 102912
10:00+11sse22645 0.0 1030380
13:00+13se225612 0.0 10301044
16:00+13ene225718 0.0 1030801
19:00+11ne3361100 0.0 1030408
22:00+8e227097 0.0 103032
24 april, sat
sat2401:00+7ese227211 0.0 103015
04:00+7ese11735 0.0 103010
07:00+7e11760 0.0 103011
10:00+11se22586 0.0 1030349
13:00+14se334565 0.0 1030992
16:00+14wnw124414 0.0 1030925
19:00+12n2254100 0.0 1030325
22:00+9se1167100 0.0 103010
25 april, sun
sun2501:00+9sse1164100 0.0 103013
04:00+8ssw2263100 0.0 102911
07:00+8s336655 0.0 102850
10:00+13ssw465021 0.0 1028689
13:00+15ssw564699 0.0 10261240
16:00+14sw6848100 0.0 1026985
19:00+11sw5965100 0.0 1024770
22:00+10wsw51075100 0.0 1023718